{"data":{"norad_id":56409,"intl_designator":"2023-061AM","name":"STARLINK-6241","alt_names":[],"object_type":"PAYLOAD","status":"ACTIVE","operator":null,"country":"US","launch_date":"2023-05-04","launch_site_code":"AFETR","launch_vehicle":null,"mission":null,"orbit_class":"UNKNOWN","rcs_meters":null,"size_class":null,"mass_kg":null,"dimensions":null,"purposes":["comms"],"wikipedia_slug":null,"has_3d_model":false,"image_url":null,"decayed_at":null,"tle_current":{"epoch":"2026-05-24T21:02:49.083936Z","epoch_age_seconds":82115,"freshness":"FRESH","line1":"1 56409U 23061AM  26144.87695699  .00080882  00000+0  29533-2 0  9991","line2":"2 56409  43.0021 117.0079 0001299 181.5457 178.5390 15.27169311168524","mean_motion":15.27169311,"eccentricity":0.0001299,"inclination_deg":43.0021,"raan_deg":117.0079,"arg_perigee_deg":181.5457,"mean_anomaly_deg":178.539,"bstar":0.0029533,"rev_number":16852,"period_min":94.292099089988,"perigee_km":483.38769437661,"apogee_km":485.17055008517,"semimajor_km":6862.4161222309,"source":"CELESTRAK","updated_at":"2026-05-25T13:38:18.059966Z"}}}